QPF
0.01 0.01 0.01 0.00 0.01 0.03 0.05 0.08 0.07 0.05 0.03 0.02 0.02 0.02 0.02 0.03 0.03 0.04 0.04 0.05 0.06 0.06 0.07 0.09 0.10 0.09 0.07 0.06 0.05 0.05 0.05 0.05 0.06 0.08 0.08 0.08 0.07 0.08 0.08 0.07 0.06 0.06 0.06
0.01 0.01 0.01 0.00 0.01 0.02 0.04 0.08 0.07 0.05 0.03 0.02 0.02 0.02 0.03 0.04 0.03 0.04 0.05 0.05 0.05 0.06 0.08 0.10 0.12 0.11 0.09 0.07 0.06 0.05 0.05 0.06 0.07 0.06 0.06 0.07 0.08 0.09 0.08 0.07 0.06 0.06 0.06
0.01 0.01 0.00 0.00 0.01 0.02 0.02 0.04 0.04 0.05 0.04 0.02 0.02 0.02 0.03 0.04 0.05 0.04 0.04 0.04 0.04 0.05 0.07 0.08 0.08 0.08 0.08 0.07 0.06 0.06 0.04 0.06 0.07 0.07 0.05 0.04 0.05 0.07 0.08 0.08 0.06 0.06 0.05
0.02 0.02 0.01 0.01 0.02 0.02 0.01 0.01 0.02 0.03 0.03 0.02 0.02 0.01 0.02 0.03 0.03 0.04 0.03 0.04 0.04 0.05 0.06 0.07 0.07 0.06 0.06 0.06 0.06 0.05 0.05 0.05 0.06 0.06 0.06 0.05 0.05 0.05 0.06 0.06 0.05 0.05 0.04
0.02 0.01 0.01 0.01 0.02 0.01 0.01 0.01 0.02 0.04 0.04 0.03 0.02 0.02 0.02 0.02 0.03 0.03 0.04 0.05 0.05 0.05 0.05 0.07 0.07 0.07 0.05 0.05 0.05 0.04 0.05 0.06 0.06 0.04 0.05 0.07 0.06 0.06 0.05 0.04 0.04 0.04 0.05
0.02 0.01 0.01 0.02 0.02 0.02 0.02 0.02 0.03 0.05 0.05 0.05 0.03 0.02 0.02 0.02 0.02 0.03 0.03 0.03 0.04 0.05 0.06 0.07 0.06 0.05 0.04 0.03 0.03 0.04 0.04 0.04 0.04 0.03 0.04 0.05 0.06 0.08 0.08 0.04 0.02 0.02 0.03
0.02 0.02 0.01 0.01 0.01 0.02 0.03 0.03 0.04 0.04 0.04 0.04 0.03 0.02 0.03 0.04 0.03 0.03 0.03 0.02 0.02 0.04 0.04 0.06 0.04 0.05 0.05 0.06 0.06 0.05 0.04 0.03 0.03 0.03 0.04 0.04 0.05 0.08 0.07 0.05 0.04 0.03 0.02
0.04 0.04 0.04 0.03 0.02 0.02 0.02 0.03 0.03 0.04 0.03 0.03 0.03 0.04 0.04 0.04 0.04 0.04 0.06 0.05 0.04 0.03 0.03 0.02 0.02 0.02 0.04 0.08 0.10 0.09 0.08 0.07 0.07 0.07 0.06 0.05 0.05 0.07 0.07 0.06 0.06 0.04 0.03
0.03 0.04 0.06 0.06 0.04 0.03 0.03 0.04 0.04 0.03 0.03 0.02 0.02 0.03 0.03 0.03 0.03 0.04 0.05 0.06 0.05 0.03 0.02 0.02 0.02 0.02 0.03 0.04 0.05 0.07 0.09 0.10 0.10 0.10 0.10 0.10 0.07 0.06 0.07 0.06 0.05 0.05 0.05
0.02 0.03 0.05 0.07 0.07 0.05 0.04 0.04 0.05 0.04 0.03 0.03 0.03 0.03 0.03 0.03 0.03 0.04 0.04 0.04 0.04 0.04 0.03 0.03 0.04 0.04 0.05 0.06 0.05 0.03 0.03 0.03 0.04 0.05 0.07 0.08 0.05 0.03 0.04 0.04 0.04 0.05 0.06
0.02 0.05 0.06 0.05 0.04 0.04 0.05 0.04 0.04 0.04 0.04 0.03 0.03 0.03 0.03 0.04 0.04 0.04 0.04 0.04 0.04 0.04 0.04 0.04 0.05 0.06 0.07 0.07 0.07 0.05 0.03 0.02 0.02 0.02 0.03 0.05 0.06 0.04 0.04 0.04 0.03 0.05 0.07
0.02 0.04 0.07 0.08 0.06 0.04 0.03 0.03 0.04 0.05 0.07 0.08 0.06 0.03 0.04 0.05 0.04 0.03 0.03 0.04 0.04 0.05 0.05 0.06 0.05 0.04 0.04 0.04 0.04 0.04 0.05 0.04 0.04 0.03 0.03 0.03 0.05 0.05 0.06 0.04 0.04 0.05 0.08
0.02 0.04 0.08 0.08 0.08 0.07 0.04 0.03 0.04 0.05 0.05 0.05 0.05 0.02 0.03 0.04 0.03 0.03 0.02 0.04 0.05 0.07 0.07 0.07 0.06 0.05 0.04 0.03 0.03 0.04 0.04 0.05 0.05 0.06 0.07 0.05 0.05 0.05 0.06 0.04 0.04 0.07 0.08
0.03 0.03 0.04 0.05 0.05 0.05 0.04 0.03 0.04 0.04 0.03 0.04 0.03 0.02 0.02 0.03 0.02 0.02 0.02 0.04 0.05 0.06 0.06 0.05 0.03 0.03 0.03 0.02 0.02 0.02 0.03 0.03 0.04 0.05 0.07 0.06 0.05 0.05 0.06 0.05 0.06 0.10 0.10
0.03 0.03 0.03 0.03 0.04 0.04 0.03 0.03 0.03 0.03 0.02 0.02 0.02 0.02 0.01 0.02 0.03 0.03 0.03 0.05 0.07 0.07 0.07 0.06 0.03 0.03 0.03 0.02 0.01 0.02 0.02 0.02 0.02 0.03 0.03 0.04 0.05 0.05 0.06 0.06 0.08 0.10 0.11
0.02 0.03 0.03 0.04 0.06 0.05 0.06 0.05 0.03 0.03 0.03 0.02 0.02 0.02 0.01 0.02 0.02 0.03 0.05 0.07 0.09 0.08 0.08 0.07 0.04 0.03 0.03 0.02 0.02 0.02 0.02 0.02 0.02 0.03 0.04 0.05 0.06 0.06 0.07 0.08 0.09 0.11 0.12
0.02 0.02 0.04 0.05 0.06 0.07 0.08 0.08 0.05 0.05 0.05 0.04 0.03 0.02 0.02 0.02 0.03 0.08 0.13 0.12 0.10 0.09 0.07 0.06 0.04 0.02 0.02 0.02 0.02 0.02 0.02 0.02 0.02 0.02 0.03 0.04 0.04 0.05 0.06 0.07 0.08 0.08 0.10
0.01 0.01 0.01 0.01 0.01 0.03 0.04 0.08 0.06 0.04 0.05 0.05 0.04 0.03 0.03 0.03 0.03 0.05 0.09 0.12 0.11 0.09 0.06 0.05 0.04 0.02 0.02 0.02 0.02 0.02 0.02 0.01 0.02 0.02 0.03 0.04 0.04 0.05 0.06 0.06 0.08 0.08 0.08
0.01 0.01 0.01 0.01 0.01 0.02 0.03 0.07 0.10 0.06 0.05 0.06 0.06 0.05 0.05 0.06 0.07 0.05 0.06 0.08 0.10 0.10 0.08 0.07 0.06 0.05 0.04 0.04 0.03 0.03 0.03 0.02 0.02 0.02 0.02 0.03 0.03 0.04 0.06 0.05 0.06 0.07 0.07
0.02 0.01 0.01 0.02 0.01 0.02 0.02 0.05 0.10 0.12 0.12 0.13 0.13 0.14 0.14 0.14 0.14 0.13 0.12 0.12 0.14 0.15 0.12 0.09 0.07 0.06 0.05 0.06 0.04 0.04 0.04 0.03 0.02 0.02 0.03 0.04 0.04 0.04 0.05 0.05 0.06 0.07 0.06
0.02 0.02 0.02 0.02 0.03 0.03 0.03 0.05 0.07 0.10 0.11 0.12 0.14 0.15 0.17 0.18 0.16 0.14 0.13 0.11 0.10 0.10 0.09 0.07 0.05 0.04 0.04 0.04 0.05 0.05 0.05 0.05 0.04 0.03 0.04 0.05 0.07 0.06 0.06 0.05 0.05 0.06 0.06
0.05 0.04 0.02 0.02 0.03 0.03 0.04 0.05 0.07 0.09 0.11 0.12 0.13 0.14 0.15 0.15 0.12 0.11 0.12 0.11 0.09 0.07 0.06 0.05 0.04 0.04 0.04 0.04 0.05 0.05 0.05 0.05 0.05 0.04 0.05 0.05 0.06 0.07 0.08 0.08 0.08 0.08 0.08
0.07 0.05 0.03 0.02 0.02 0.03 0.04 0.06 0.07 0.08 0.10 0.11 0.12 0.13 0.14 0.16 0.15 0.11 0.09 0.08 0.08 0.08 0.06 0.05 0.06 0.06 0.05 0.05 0.05 0.04 0.04 0.05 0.04 0.04 0.05 0.05 0.06 0.07 0.08 0.09 0.10 0.10 0.09
0.02 0.03 0.04 0.03 0.03 0.04 0.06 0.09 0.10 0.12 0.14 0.14 0.11 0.08 0.07 0.08 0.09 0.08 0.06 0.05 0.05 0.05 0.04 0.03 0.04 0.03 0.03 0.03 0.02 0.02 0.03 0.03 0.04 0.04 0.04 0.04 0.05 0.05 0.06 0.07 0.07 0.07 0.07
0.01 0.02 0.05 0.06 0.04 0.05 0.09 0.12 0.13 0.13 0.12 0.09 0.06 0.04 0.03 0.05 0.06 0.05 0.04 0.03 0.02 0.02 0.02 0.01 0.01 0.01 0.01 0.01 0.01 0.02 0.02 0.03 0.03 0.03 0.03 0.03 0.03 0.02 0.02 0.02 0.02 0.03 0.03
0.01 0.01 0.02 0.02 0.02 0.03 0.07 0.11 0.11 0.10 0.08 0.05 0.04 0.02 0.02 0.03 0.04 0.04 0.03 0.03 0.02 0.02 0.01 0.01 0.01 0.01 0.01 0.02 0.02 0.02 0.03 0.03 0.03 0.04 0.03 0.03 0.03 0.02 0.02 0.02 0.01 0.01 0.01
MSLP
1007.72 1008.18 1008.57 1008.88 1009.10 1009.26 1009.40 1009.56 1009.79 1010.10 1010.49 1010.92 1011.37 1011.78 1012.11 1012.34 1012.47 1012.52 1012.53 1012.53 1012.56 1012.65 1012.81 1013.04 1013.31 1013.62 1013.92 1014.21 1014.46 1014.68 1014.88 1015.05 1015.22 1015.37 1015.51 1015.64 1015.74 1015.82 1015.88 1015.93 1015.98 1016.06 1016.16
1007.45 1007.99 1008.45 1008.78 1009.00 1009.12 1009.22 1009.35 1009.58 1009.91 1010.35 1010.86 1011.39 1011.87 1012.25 1012.50 1012.62 1012.62 1012.57 1012.51 1012.48 1012.54 1012.68 1012.92 1013.21 1013.54 1013.86 1014.17 1014.43 1014.66 1014.88 1015.08 1015.28 1015.49 1015.72 1015.94 1016.15 1016.34 1016.50 1016.63 1016.74 1016.85 1016.96
1007.13 1007.72 1008.22 1008.58 1008.80 1008.91 1008.98 1009.10 1009.33 1009.69 1010.18 1010.77 1011.37 1011.91 1012.34 1012.61 1012.73 1012.71 1012.61 1012.50 1012.44 1012.46 1012.60 1012.83 1013.13 1013.47 1013.81 1014.11 1014.38 1014.61 1014.82 1015.03 1015.27 1015.53 1015.84 1016.16 1016.49 1016.80 1017.07 1017.31 1017.50 1017.66 1017.79
1006.78 1007.40 1007.91 1008.28 1008.49 1008.59 1008.65 1008.76 1008.99 1009.37 1009.91 1010.55 1011.22 1011.83 1012.31 1012.62 1012.74 1012.72 1012.61 1012.48 1012.40 1012.42 1012.55 1012.79 1013.10 1013.45 1013.78 1014.08 1014.33 1014.54 1014.74 1014.95 1015.20 1015.50 1015.86 1016.27 1016.70 1017.12 1017.51 1017.85 1018.13 1018.35 1018.51
1006.49 1007.07 1007.57 1007.91 1008.10 1008.17 1008.21 1008.29 1008.52 1008.91 1009.48 1010.16 1010.88 1011.55 1012.08 1012.44 1012.61 1012.62 1012.53 1012.42 1012.36 1012.39 1012.54 1012.79 1013.12 1013.47 1013.80 1014.09 1014.32 1014.50 1014.67 1014.86 1015.11 1015.42 1015.82 1016.28 1016.79 1017.30 1017.78 1018.21 1018.56 1018.83 1019.03
1006.28 1006.80 1007.24 1007.53 1007.67 1007.69 1007.68 1007.72 1007.92 1008.30 1008.86 1009.57 1010.32 1011.04 1011.64 1012.06 1012.29 1012.36 1012.33 1012.28 1012.27 1012.34 1012.53 1012.81 1013.16 1013.53 1013.86 1014.14 1014.36 1014.52 1014.66 1014.82 1015.04 1015.35 1015.75 1016.24 1016.77 1017.33 1017.87 1018.35 1018.75 1019.07 1019.29
1006.20 1006.62 1006.97 1007.19 1007.24 1007.19 1007.10 1007.09 1007.22 1007.57 1008.11 1008.81 1009.58 1010.33 1010.98 1011.47 1011.78 1011.94 1012.00 1012.03 1012.09 1012.24 1012.49 1012.83 1013.21 1013.60 1013.96 1014.24 1014.45 1014.59 1014.71 1014.85 1015.05 1015.33 1015.71 1016.18 1016.71 1017.28 1017.83 1018.33 1018.75 1019.09 1019.33
1006.25 1006.57 1006.82 1006.93 1006.88 1006.73 1006.56 1006.45 1006.52 1006.80 1007.29 1007.96 1008.72 1009.49 1010.17 1010.72 1011.11 1011.36 1011.52 1011.65 1011.81 1012.05 1012.37 1012.77 1013.22 1013.65 1014.04 1014.35 1014.57 1014.73 1014.84 1014.97 1015.14 1015.39 1015.74 1016.17 1016.67 1017.21 1017.73 1018.22 1018.64 1018.98 1019.22
1006.42 1006.64 1006.78 1006.78 1006.64 1006.38 1006.11 1005.92 1005.90 1006.10 1006.53 1007.14 1007.87 1008.62 1009.32 1009.90 1010.35 1010.67 1010.92 1011.15 1011.41 1011.73 1012.14 1012.62 1013.13 1013.63 1014.07 1014.43 1014.70 1014.88 1015.02 1015.16 1015.32 1015.55 1015.86 1016.25 1016.70 1017.18 1017.66 1018.12 1018.51 1018.83 1019.07
1006.69 1006.82 1006.87 1006.78 1006.53 1006.19 1005.84 1005.57 1005.47 1005.59 1005.94 1006.49 1007.15 1007.86 1008.53 1009.11 1009.58 1009.95 1010.26 1010.56 1010.89 1011.30 1011.79 1012.34 1012.92 1013.49 1014.01 1014.44 1014.78 1015.03 1015.22 1015.39 1015.57 1015.80 1016.08 1016.43 1016.83 1017.25 1017.68 1018.08 1018.44 1018.75 1018.99
1007.01 1007.09 1007.07 1006.90 1006.59 1006.18 1005.77 1005.45 1005.30 1005.37 1005.65 1006.11 1006.70 1007.33 1007.93 1008.47 1008.91 1009.27 1009.59 1009.92 1010.30 1010.76 1011.31 1011.93 1012.58 1013.23 1013.83 1014.35 1014.77 1015.11 1015.38 1015.61 1015.83 1016.08 1016.36 1016.68 1017.04 1017.41 1017.79 1018.15 1018.48 1018.76 1019.01
1007.37 1007.41 1007.34 1007.12 1006.77 1006.34 1005.92 1005.59 1005.42 1005.45 1005.68 1006.07 1006.57 1007.09 1007.59 1008.03 1008.39 1008.70 1008.98 1009.30 1009.69 1010.17 1010.75 1011.42 1012.14 1012.86 1013.54 1014.16 1014.68 1015.11 1015.47 1015.77 1016.06 1016.34 1016.64 1016.96 1017.29 1017.63 1017.97 1018.29 1018.60 1018.88 1019.12
1007.74 1007.74 1007.63 1007.39 1007.03 1006.62 1006.24 1005.94 1005.80 1005.83 1006.03 1006.35 1006.75 1007.15 1007.52 1007.83 1008.07 1008.28 1008.49 1008.75 1009.11 1009.58 1010.18 1010.88 1011.65 1012.43 1013.19 1013.88 1014.49 1015.02 1015.47 1015.85 1016.20 1016.53 1016.86 1017.19 1017.52 1017.84 1018.16 1018.46 1018.75 1019.03 1019.29
1008.08 1008.05 1007.90 1007.65 1007.32 1006.97 1006.65 1006.43 1006.35 1006.42 1006.61 1006.88 1007.18 1007.46 1007.69 1007.85 1007.94 1008.02 1008.13 1008.32 1008.62 1009.07 1009.66 1010.38 1011.17 1012.00 1012.81 1013.57 1014.26 1014.86 1015.38 1015.84 1016.25 1016.62 1016.98 1017.33 1017.67 1017.99 1018.30 1018.60 1018.89 1019.16 1019.43
1008.38 1008.29 1008.11 1007.86 1007.57 1007.29 1007.08 1006.96 1006.97 1007.10 1007.30 1007.54 1007.76 1007.93 1008.02 1008.02 1007.98 1007.93 1007.93 1008.03 1008.28 1008.69 1009.27 1009.98 1010.79 1011.64 1012.48 1013.28 1014.01 1014.66 1015.23 1015.73 1016.19 1016.60 1017.00 1017.37 1017.72 1018.06 1018.37 1018.67 1018.96 1019.23 1019.50
1008.59 1008.44 1008.22 1007.97 1007.73 1007.54 1007.44 1007.44 1007.56 1007.75 1007.98 1008.21 1008.37 1008.44 1008.41 1008.29 1008.12 1007.96 1007.87 1007.91 1008.11 1008.49 1009.04 1009.75 1010.55 1011.40 1012.25 1013.06 1013.80 1014.46 1015.05 1015.58 1016.05 1016.50 1016.92 1017.31 1017.69 1018.04 1018.36 1018.67 1018.95 1019.22 1019.48
1008.70 1008.47 1008.21 1007.97 1007.77 1007.67 1007.68 1007.79 1008.01 1008.27 1008.54 1008.76 1008.89 1008.89 1008.78 1008.57 1008.33 1008.09 1007.95 1007.94 1008.12 1008.48 1009.02 1009.71 1010.49 1011.32 1012.15 1012.93 1013.66 1014.31 1014.89 1015.41 1015.89 1016.35 1016.79 1017.21 1017.60 1017.97 1018.32 1018.63 1018.91 1019.16 1019.40
1008.69 1008.37 1008.08 1007.84 1007.69 1007.66 1007.76 1007.97 1008.26 1008.59 1008.89 1009.12 1009.23 1009.21 1009.06 1008.82 1008.54 1008.29 1008.13 1008.13 1008.30 1008.66 1009.19 1009.86 1010.61 1011.41 1012.19 1012.93 1013.61 1014.22 1014.77 1015.28 1015.76 1016.22 1016.67 1017.11 1017.53 1017.93 1018.29 1018.60 1018.88 1019.11 1019.31
1008.55 1008.18 1007.86 1007.62 1007.51 1007.53 1007.69 1007.97 1008.32 1008.69 1009.02 1009.26 1009.37 1009.36 1009.21 1008.99 1008.73 1008.52 1008.40 1008.43 1008.62 1008.99 1009.52 1010.16 1010.88 1011.62 1012.34 1013.02 1013.64 1014.21 1014.72 1015.21 1015.68 1016.15 1016.62 1017.08 1017.53 1017.95 1018.33 1018.65 1018.92 1019.13 1019.29
1008.31 1007.91 1007.58 1007.35 1007.26 1007.31 1007.51 1007.81 1008.19 1008.58 1008.92 1009.18 1009.32 1009.33 1009.24 1009.08 1008.89 1008.76 1008.71 1008.80 1009.04 1009.44 1009.96 1010.58 1011.25 1011.93 1012.58 1013.19 1013.75 1014.27 1014.75 1015.22 1015.69 1016.17 1016.66 1017.15 1017.63 1018.07 1018.47 1018.79 1019.05 1019.23 1019.34
1008.00 1007.60 1007.28 1007.06 1006.98 1007.04 1007.24 1007.54 1007.91 1008.29 1008.64 1008.91 1009.09 1009.16 1009.15 1009.08 1009.01 1008.99 1009.05 1009.22 1009.52 1009.93 1010.45 1011.04 1011.66 1012.27 1012.86 1013.41 1013.91 1014.38 1014.84 1015.30 1015.78 1016.27 1016.78 1017.30 1017.80 1018.26 1018.67 1018.99 1019.23 1019.39 1019.46
1007.68 1007.30 1006.99 1006.78 1006.70 1006.75 1006.91 1007.18 1007.51 1007.87 1008.20 1008.49 1008.71 1008.86 1008.95 1009.01 1009.08 1009.19 1009.36 1009.63 1009.99 1010.43 1010.95 1011.50 1012.07 1012.62 1013.15 1013.64 1014.10 1014.54 1014.98 1015.44 1015.93 1016.43 1016.96 1017.49 1018.00 1018.47 1018.86 1019.18 1019.40 1019.52 1019.56
1007.36 1007.02 1006.73 1006.53 1006.43 1006.43 1006.55 1006.75 1007.02 1007.33 1007.65 1007.95 1008.22 1008.46 1008.67 1008.87 1009.08 1009.33 1009.63 1009.99 1010.41 1010.89 1011.40 1011.92 1012.44 1012.94 1013.41 1013.86 1014.29 1014.71 1015.15 1015.61 1016.09 1016.61 1017.13 1017.65 1018.15 1018.59 1018.97 1019.25 1019.44 1019.53 1019.53
1007.10 1006.79 1006.51 1006.29 1006.15 1006.10 1006.14 1006.26 1006.45 1006.71 1007.00 1007.31 1007.63 1007.96 1008.29 1008.63 1009.00 1009.39 1009.81 1010.27 1010.75 1011.25 1011.77 1012.27 1012.75 1013.21 1013.65 1014.06 1014.47 1014.89 1015.32 1015.77 1016.25 1016.74 1017.24 1017.72 1018.17 1018.57 1018.89 1019.12 1019.26 1019.32 1019.30
1006.90 1006.60 1006.32 1006.07 1005.88 1005.74 1005.69 1005.71 1005.82 1006.01 1006.28 1006.60 1006.97 1007.38 1007.83 1008.31 1008.82 1009.34 1009.88 1010.43 1010.97 1011.51 1012.03 1012.52 1012.98 1013.42 1013.83 1014.23 1014.63 1015.03 1015.45 1015.89 1016.33 1016.79 1017.23 1017.64 1018.01 1018.33 1018.57 1018.73 1018.82 1018.84 1018.80
1006.76 1006.46 1006.15 1005.85 1005.58 1005.36 1005.21 1005.13 1005.16 1005.29 1005.52 1005.85 1006.26 1006.76 1007.31 1007.91 1008.54 1009.18 1009.83 1010.46 1011.06 1011.63 1012.17 1012.66 1013.12 1013.54 1013.95 1014.34 1014.73 1015.13 1015.53 1015.93 1016.32 1016.71 1017.06 1017.38 1017.65 1017.86 1018.01 1018.09 1018.12 1018.10 1018.04
Thickness
5804 5803 5800 5799 5795 5791 5788 5785 5782 5781 5779 5776 5774 5771 5769 5770 5770 5770 5770 5770 5770 5769 5768 5767 5766 5766 5764 5763 5762 5761 5758 5757 5757 5753 5751 5753 5755 5755 5755 5755 5753 5752 5751
5800 5800 5799 5797 5794 5790 5788 5785 5783 5781 5780 5778 5776 5774 5771 5770 5770 5770 5770 5770 5770 5769 5768 5767 5766 5765 5763 5761 5760 5759 5756 5755 5755 5750 5745 5741 5744 5750 5754 5753 5752 5752 5751
5801 5800 5798 5796 5794 5791 5788 5787 5784 5782 5781 5779 5777 5774 5771 5769 5767 5767 5768 5769 5769 5769 5768 5767 5766 5764 5763 5760 5759 5758 5756 5752 5752 5752 5746 5738 5735 5740 5747 5750 5751 5751 5750
5804 5801 5798 5795 5794 5793 5791 5789 5785 5783 5781 5779 5775 5772 5767 5764 5765 5766 5767 5768 5768 5767 5766 5765 5764 5763 5761 5760 5759 5758 5756 5754 5750 5750 5751 5749 5745 5738 5737 5743 5747 5748 5748
5805 5802 5800 5797 5796 5794 5791 5788 5785 5782 5779 5777 5775 5771 5768 5767 5766 5766 5765 5765 5766 5766 5766 5765 5763 5761 5760 5759 5758 5757 5755 5753 5750 5749 5748 5747 5745 5743 5737 5734 5739 5742 5746
5805 5802 5801 5798 5795 5793 5790 5787 5783 5780 5778 5776 5774 5771 5768 5766 5764 5762 5762 5762 5763 5764 5764 5763 5762 5760 5759 5757 5756 5755 5753 5752 5750 5749 5747 5745 5742 5740 5737 5734 5734 5736 5741
5804 5801 5797 5795 5792 5789 5787 5784 5780 5777 5777 5775 5773 5771 5769 5767 5764 5762 5761 5760 5759 5760 5761 5761 5760 5759 5757 5756 5755 5753 5752 5750 5748 5747 5746 5745 5744 5743 5740 5736 5733 5732 5736
5803 5801 5798 5795 5792 5789 5785 5782 5778 5776 5775 5774 5772 5771 5769 5766 5764 5763 5761 5760 5758 5758 5759 5759 5758 5758 5756 5755 5753 5751 5749 5748 5747 5746 5745 5744 5744 5743 5740 5737 5732 5728 5729
5800 5798 5797 5794 5792 5788 5785 5782 5778 5775 5773 5772 5771 5769 5768 5765 5763 5762 5761 5759 5758 5758 5757 5757 5755 5754 5753 5752 5750 5748 5747 5746 5744 5743 5742 5741 5742 5741 5740 5738 5735 5728 5723
5796 5795 5794 5793 5791 5788 5786 5782 5779 5775 5773 5771 5770 5769 5766 5765 5763 5761 5759 5757 5756 5756 5755 5754 5752 5751 5750 5748 5747 5745 5745 5743 5742 5741 5740 5739 5739 5738 5737 5735 5733 5730 5725
5791 5790 5791 5791 5789 5786 5783 5780 5776 5773 5770 5768 5767 5765 5763 5762 5761 5759 5757 5755 5754 5753 5751 5750 5748 5747 5746 5745 5743 5742 5741 5740 5739 5738 5737 5735 5735 5734 5733 5732 5730 5728 5725
5788 5787 5786 5784 5782 5781 5779 5777 5774 5770 5767 5765 5763 5761 5759 5758 5756 5755 5754 5753 5751 5750 5748 5747 5745 5744 5742 5741 5739 5738 5737 5735 5734 5734 5733 5732 5732 5730 5729 5728 5726 5725 5724
5781 5780 5779 5777 5776 5775 5774 5772 5770 5768 5766 5762 5759 5756 5755 5753 5752 5751 5750 5749 5748 5746 5745 5743 5741 5739 5738 5737 5736 5734 5733 5732 5731 5731 5729 5728 5727 5725 5724 5723 5722 5721 5721
5775 5773 5771 5770 5770 5769 5768 5767 5765 5763 5761 5758 5754 5751 5750 5750 5748 5747 5746 5745 5744 5742 5740 5738 5737 5735 5734 5733 5731 5730 5729 5728 5727 5727 5726 5724 5723 5722 5720 5719 5717 5716 5714
5769 5768 5766 5764 5763 5762 5761 5761 5760 5758 5756 5753 5749 5747 5747 5745 5744 5742 5740 5739 5738 5737 5735 5733 5731 5730 5729 5728 5727 5726 5725 5723 5722 5721 5721 5721 5720 5719 5717 5715 5712 5710 5708
5764 5763 5762 5760 5758 5756 5755 5754 5753 5752 5751 5747 5744 5743 5741 5739 5738 5736 5735 5733 5731 5730 5728 5726 5725 5724 5724 5724 5723 5721 5719 5717 5716 5715 5714 5715 5714 5713 5712 5710 5708 5706 5702
5760 5758 5756 5756 5755 5753 5751 5748 5746 5746 5744 5742 5740 5738 5736 5734 5732 5732 5729 5726 5725 5723 5721 5719 5718 5717 5717 5717 5716 5715 5713 5711 5709 5708 5707 5708 5708 5706 5704 5703 5702 5700 5699
5755 5754 5753 5751 5750 5749 5747 5744 5741 5738 5736 5735 5734 5733 5730 5728 5726 5724 5722 5720 5719 5717 5714 5712 5711 5710 5710 5709 5709 5708 5705 5704 5703 5702 5701 5699 5699 5698 5696 5695 5693 5691 5690
5750 5750 5749 5748 5746 5743 5741 5738 5734 5731 5729 5728 5727 5727 5725 5721 5719 5717 5714 5713 5711 5709 5707 5705 5703 5701 5701 5701 5700 5699 5696 5695 5694 5694 5694 5693 5691 5691 5689 5686 5684 5682 5681
5745 5744 5743 5741 5737 5736 5734 5730 5726 5724 5721 5720 5720 5719 5718 5715 5712 5710 5708 5706 5704 5701 5699 5697 5696 5694 5693 5693 5691 5690 5687 5685 5685 5685 5685 5685 5683 5683 5681 5678 5675 5672 5672
5738 5737 5735 5731 5729 5728 5726 5721 5719 5717 5716 5714 5712 5711 5710 5708 5706 5704 5701 5699 5696 5694 5692 5690 5688 5686 5685 5685 5683 5681 5679 5677 5676 5675 5675 5675 5675 5674 5672 5670 5667 5665 5664
5729 5729 5726 5723 5722 5722 5719 5714 5712 5712 5710 5707 5705 5703 5702 5701 5700 5696 5694 5691 5688 5685 5683 5681 5679 5678 5678 5677 5675 5674 5672 5670 5668 5667 5666 5666 5665 5664 5663 5661 5659 5657 5654
5721 5721 5718 5715 5714 5714 5712 5708 5707 5706 5703 5700 5698 5696 5694 5693 5691 5688 5686 5684 5681 5678 5675 5673 5670 5669 5669 5668 5667 5666 5665 5663 5661 5659 5659 5657 5656 5655 5653 5652 5649 5647 5643
5713 5712 5709 5706 5705 5705 5704 5702 5701 5699 5696 5693 5690 5688 5687 5685 5684 5681 5679 5676 5674 5671 5668 5665 5663 5661 5659 5658 5657 5656 5655 5654 5652 5649 5648 5647 5646 5644 5642 5640 5638 5635 5632
5704 5703 5700 5698 5697 5697 5696 5695 5694 5691 5688 5686 5684 5682 5681 5678 5676 5674 5673 5671 5669 5666 5663 5660 5658 5654 5652 5652 5651 5648 5647 5645 5643 5640 5638 5636 5634 5632 5630 5628 5625 5624 5622
5696 5694 5692 5690 5690 5689 5688 5687 5686 5683 5680 5677 5676 5675 5673 5671 5669 5666 5664 5663 5662 5660 5658 5656 5653 5651 5649 5647 5644 5642 5640 5637 5635 5631 5627 5625 5623 5620 5618 5616 5614 5613 5611